全部
B T & K H Ranch Airport (Dry Creek, LA) 44LA 天气
There is no TAF data available at 44LA or any nearby airports.
There is no METAR data available at 44LA. Showing METAR data for KDRI (21 mi W).
DRI近期METAR历史数据(44LA无数据)
| Date | Time (CDT) | Flight Rules | Wind Dir. | Speed | Type | Height AGL (ft) | Visibility | Temp (°C) | Temp (°F) | Dew Point (°C) | Dew Point (°F) | Rel. Humid. | Pressure | Density Altitude | Remarks |
|---|---|---|---|---|---|---|---|---|---|---|---|---|---|---|---|
| 02-五月 | 22:35 | VFR | Calm | 10 miles | 14° | 57° | 13° | 55° | 94% | 30.13 in Hg | -129 ft | ||||
| 02-五月 | 22:15 | VFR | Calm | 10 miles | 13° | 55° | 13° | 55° | 95% | 30.13 in Hg | -249 ft | ||||
| 02-五月 | 21:55 | VFR | Calm | 10 miles | 14° | 57° | 12° | 53° | 93% | 30.13 in Hg | -129 ft | ||||
| 02-五月 | 21:35 | VFR | Calm | 10 miles | 14° | 57° | 12° | 53° | 86% | 30.12 in Hg | -119 ft | ||||
| 02-五月 | 21:15 | VFR | Calm | 10 miles | 15° | 59° | 12° | 53° | 82% | 30.12 in Hg | 1 ft | ||||
| 02-五月 | 20:55 | VFR | Calm | 10 miles | 16° | 60° | 11° | 51° | 74% | 30.11 in Hg | 131 ft | ||||
| 02-五月 | 20:35 | VFR | Calm | 10 miles | 16° | 60° | 11° | 51° | 70% | 30.10 in Hg | 141 ft | ||||
| 02-五月 | 20:15 | VFR | Calm | 10 miles | 17° | 62° | 10° | 50° | 61% | 30.10 in Hg | 261 ft | ||||
| 02-五月 | 19:55 | VFR | 10° | 3 kt | 10 miles | 19° | 66° | 6° | 42° | 41% | 30.09 in Hg | 511 ft | |||
| 02-五月 | 19:35 | VFR | 20° | 4 kt | 10 miles | 20° | 68° | 5° | 41° | 38% | 30.09 in Hg | 631 ft | |||
| 02-五月 | 19:15 | VFR | 360° | 4 kt | 10 miles | 21° | 69° | 5° | 41° | 35% | 30.08 in Hg | 761 ft | |||
| 02-五月 | 18:55 | VFR | 340° | 6 kt | 10 miles | 22° | 71° | 4° | 39° | 31% | 30.08 in Hg | 881 ft | |||
| 02-五月 | 18:35 | VFR | 350° | 7 kt | 10 miles | 22° | 71° | 4° | 39° | 30% | 30.08 in Hg | 881 ft | |||
| 02-五月 | 18:15 | VFR | 350° | 10 kt | 10 miles | 23° | 73° | 4° | 39° | 29% | 30.07 in Hg | 1,011 ft | |||
| 02-五月 | 17:55 | VFR | Variable | 6 kt | 10 miles | 23° | 73° | 4° | 39° | 29% | 30.07 in Hg | 1,011 ft | |||
| 02-五月 | 17:35 | VFR | 350° | 7 kt | 10 miles | 23° | 73° | 4° | 39° | 29% | 30.06 in Hg | 1,021 ft | |||
| 02-五月 | 17:15 | VFR | 10° | 8 kt | 10 miles | 23° | 73° | 4° | 39° | 29% | 30.06 in Hg | 1,021 ft | |||
| 02-五月 | 16:55 | VFR | 20° | 10 kt | 10 miles | 23° | 73° | 4° | 39° | 28% | 30.06 in Hg | 1,021 ft | |||
| 02-五月 | 16:35 | VFR | 10° | 8 kt | 10 miles | 24° | 75° | 4° | 39° | 28% | 30.06 in Hg | 1,141 ft | |||
| 02-五月 | 16:15 | VFR | 30° | 8 kt | 10 miles | 23° | 73° | 3° | 37° | 27% | 30.06 in Hg | 1,021 ft | |||
| 02-五月 | 15:55 | VFR | 360° | 12 kt | 10 miles |
23° | 73° | 4° | 39° | 28% | 30.06 in Hg | 1,021 ft | |||
| 02-五月 | 15:35 | VFR | 20° | 10 kt | 9 miles |
23° | 73° | 5° | 41° | 30% | 30.07 in Hg | 1,011 ft | Wind gusting to 16 KT | ||
| 02-五月 | 15:15 | VFR | 360° | 9 kt | 10 miles | 23° | 73° | 5° | 41° | 31% | 30.08 in Hg | 1,001 ft | |||
| 02-五月 | 14:55 | VFR | 350° | 10 kt | 10 miles | 23° | 73° | 5° | 41° | 31% | 30.08 in Hg | 1,001 ft |
登录
| 您的浏览器不支持. 升级您的浏览器 |
